Regional Weather Roundup
Issued by NWS

Home | Current Version | Previous Version | Text Only | Print | Product List | Glossary On
Versions: 1 2 3 4 5 6 7 8 9 10 11 12 13 14 15 16 17 18 19 20 21 22 23 24 25 26 27 28 29 30 31 32 33 34 35 36 37 38 39 40 41 42 43 44 45 46 47 48 49 50
000
ASUS43 KDTX 302201
RWRMI
MICHIGAN HOURLY REGIONAL WEATHER ROUNDUP
NATIONAL WEATHER SERVICE DETROIT/PONTIAC MI
600 PM EDT SAT AUG 30 2014

NOTE: "FAIR" INDICATES FEW OR NO CLOUDS BELOW 12,000 FEET WITH NO
SIGNIFICANT WEATHER AND/OR OBSTRUCTION TO VISIBILITY.

MIZ047>049-052>055-059>063-066>070-074>076-081>083-302300-
SOUTHEAST LOWER MICHIGAN

CITY           SKY/WX    TMP DP  RH WIND       PRES   REMARKS
ADRIAN         MOSUNNY   84  67  56 SW20G31   29.90F
ALMA           LGT RAIN  75  72  89 SW5       29.81F
ANN ARBOR      MOSUNNY   83  66  56 S16G24    29.87F
BAD AXE        CLOUDY    78  70  77 S9        29.83S
CARO           CLOUDY    78  70  75 SE8       29.81F
DETROIT CITY   PTSUNNY   86  66  51 SW14G28   29.87F
DETROIT        PTSUNNY   84  68  58 S18G26    29.88F
FLINT          PTSUNNY   84  68  58 S10G20    29.83F
GROSSE ILE     PTSUNNY   82  70  65 S16       29.87F
HILLSDALE      PTSUNNY   84  67  55 SW14G21   29.90S
HOWELL         PTSUNNY   82  66  58 S13G22    29.85F

CITY           SKY/WX    TMP DP  RH WIND       PRES   REMARKS
JACKSON        MOSUNNY   82  67  60 S13       29.87S
LAMBERTVILLE   MOSUNNY   82  66  57 SW17G23   29.90S
LANSING        PTSUNNY   78  71  79 SW12      29.83F HAZE
LAPEER         FAIR      82  65  57 S15G24    29.84F
MASON          PTSUNNY   80  68  67 SW6       29.85S
MONROE         PTSUNNY   84  68  58 S16       29.87F
MT. CLEMENS    PTSUNNY   83  67  58 S16G25    29.85F
PONTIAC        PTSUNNY   83  65  54 S15G25    29.86F
PORT HOPE        N/A     79  69  71 VRB3      29.81R
PORT HURON     MOSUNNY   82  70  65 S15G21    29.87S
TRI CITIES     LGT RAIN  75  69  81 SW9       29.81F
TROY           MOSUNNY   86  63  46 S15G23    29.88F
SAGINAW HB     DRIZZLE   73  73 100 SW9G16    29.81R
$$
MIZ043>046-050>051-056>058-064>065-071>073-077>080-302300-
SOUTHWEST LOWER MICHIGAN

CITY           SKY/WX    TMP DP  RH WIND       PRES   REMARKS
BATTLE CREEK   PTSUNNY   80  68  66 SW20G25   29.87R
BENTON HARBOR  LGT RAIN  76  70  82 SW15G26   29.85R
BIG RAPIDS     CLOUDY    77  69  76 MISG      29.79S
COLDWATER      PTSUNNY   82  68  61 SW13G23   29.88S
FREMONT        CLOUDY    76  65  68 SW17G25   29.80S
HOLLAND        MOSUNNY   81  71  71 SW18G29   29.84R
GRAND RAPIDS   PTSUNNY   81  73  76 SW16G28   29.83R
IONIA          HVY RAIN  75  71  86 SW18G26   29.82S
KALAMAZOO      PTSUNNY   81  70  69 SW18G25   29.86S
LUDINGTON      CLOUDY    70  68  91 SW15      29.78S
MARSHALL       PTSUNNY   76  70  81 SW7       29.86S
MOUNT PLEASANT MOSUNNY   81  67  62 SW13G26   29.79S
MUSKEGON       PTSUNNY   78  66  66 SW18G28   29.81S
SOUTH HAVEN    MOSUNNY   81  71  71 SW14G22   29.85R
$$
MIZ016>042-302300-
NORTHERN LOWER MICHIGAN

CITY           SKY/WX    TMP DP  RH WIND       PRES   REMARKS
ALPENA         PTSUNNY   75  69  81 S9        29.74F
BEAVER ISLAND  CLOUDY    70  67  90 W9G16     29.73S
BELLAIRE       PTSUNNY   79  65  63 SW8G20    29.72S
CADILLAC       CLOUDY    71  69  95 SW14G23   29.79R
CHARLEVOIX     MOSUNNY   76  71  84 SW5       29.74F
FRANKFORT      MOSUNNY   72  66  80 SW13G20   29.75S
GAYLORD        CLOUDY    73  67  81 SW12      29.76S
GRAYLING       PTSUNNY   77  68  74 SW12G21   29.78S
HARBOR SPRINGS PTSUNNY   74  68  83 W5        29.73S
HOUGHTON LAKE  CLOUDY    74  67  78 W15G21    29.79R
MANISTEE       MOSUNNY   75  64  69 SW12G21   29.77S
OSCODA         LGT RAIN  71  68  90 S12G26    29.78F
PELLSTON       MOSUNNY   74  68  81 W9        29.74S
ROGERS CITY    PTSUNNY   75  72  88 S8        29.74S
TRAVERSE CITY  MOSUNNY   77  66  68 SW12G20   29.71F
$$
MIZ007>008-015-302300-
EASTERN UPPER MICHIGAN

CITY           SKY/WX    TMP DP  RH WIND       PRES   REMARKS
KINROSS        CLOUDY    73  70  88 W9        29.73S
MACKINAC ISLAN MOSUNNY   71  69  93 SW8       29.73S
NEWBERRY       CLOUDY    68  67  96 SW9       29.73S FOG
S. S. MARIE    CLOUDY    73  67  81 W7        29.72S
$$
MIZ004>006-011>014-085-302300-
CENTRAL UPPER MICHIGAN

CITY           SKY/WX    TMP DP  RH WIND       PRES   REMARKS
MANISTIQUE     HVY RAIN  66  65  98 N7        29.73S
ESCANABA       CLOUDY    63  59  88 NW9       29.76R
MENOMINEE      PTSUNNY   72  64  78 NW6       29.74R
SAWYER-GWINN   LGT RAIN  59  57  94 N12       29.79R
$$
MIZ001>003-009>011-084-302300-
WESTERN UPPER MICHIGAN

CITY           SKY/WX    TMP DP  RH WIND       PRES   REMARKS
IRON MOUNTAIN  LGT RAIN  63  59  87 NW14      29.80R
HOUGHTON       PTSUNNY   62  55  77 NE14      29.84S
COPPER HARBOR    N/A     57  54  89 N10       29.82R
$$

ABBREVIATIONS USED IN REMARKS
   TC - TEMPERATURE IN CELSIUS
  WCI - WIND CHILL INDEX
   HX - HEAT INDEX
  VSB - VISIBILITY




USA.gov is the U.S. government's official web portal to all federal, state and local government web resources and services.